Weather in Nizhny Ingash

Russia / Krasnoyarsk Krai     56°12′15″N   96°32′40″E
temp.,
°C
wind,
m/s
gust,
m/s
humid.,
%
clouds,
%
prec.,
mm/h
press.,
hPa
HPBL,
m
22 october, fri
fri2201:00+3ssw237031 0.0 101744
04:00+2ssw237344 0.0 101743
07:00+2ssw236556 0.0 101741
10:00+6ssw2651100 0.0 1017140
13:00+11ssw2438100 0.0 1016254
16:00+10s224794 0.0 101621
19:00+6sw225661 0.0 101716
22:00+5wsw24595 0.0 101857
23 october, sat
sat2301:00+4w297373 0.0 1020177
04:00+5w51076100 0.0 1024849
07:00+2wsw41087100 0.5 1027857
10:00+4wsw51174100 0.0 10271205
13:00+6wsw5125278 0.1 10251679
16:00+6wsw5125389 0.0 10241626
19:00+3sw51364100 0.0 1024817
22:00+3ssw4146193 0.0 1022772
24 october, sun
sun2401:00+4sw61554100 0.0 10191020
04:00+5sw71653100 0.0 10171485
07:00+4sw71674100 0.4 10171347
10:00+6wsw81565100 0.1 10161370
13:00+6wsw71569100 0.1 10151378
16:00+6wsw81779100 0.1 10151482
19:00+6wsw81581100 0.2 10171387
22:00+5wsw71682100 0.2 10171378
25 october, mon
mon2501:00+4wsw61390100 0.6 10181153
04:00+4wsw6138366 0.3 1019948
07:00+4wsw5128385 0.3 10211034
10:00+5wsw51175100 0.0 10221364
13:00+7wsw51168100 0.0 10211327
16:00+7sw31072100 0.1 1019865
19:00+7sw51273100 0.5 10181158
22:00+8sw61669100 0.0 1016947
26 october, tue
tue2601:00+9wsw71665100 0.0 10141168
04:00+9wsw7156993 0.0 10151115
07:00+8w6147032 0.0 10161044
10:00+8w4116982 0.0 10181038
13:00+10w586061 0.0 10171002
16:00+9wsw236782 0.0 101695
19:00+7se2277100 0.0 101528
22:00+6se2475100 0.0 101279